{"data":{"norad_id":44453,"intl_designator":"2019-046A","name":"MERIDIAN 8","alt_names":[],"object_type":"PAYLOAD","status":"ACTIVE","operator":null,"country":"CIS","launch_date":"2019-07-30","launch_site_code":"PLMSC","launch_vehicle":null,"mission":null,"orbit_class":"UNKNOWN","rcs_meters":null,"size_class":null,"mass_kg":null,"dimensions":null,"purposes":[],"wikipedia_slug":null,"has_3d_model":false,"image_url":null,"decayed_at":null,"tle_current":{"epoch":"2026-05-24T06:58:01.844832Z","epoch_age_seconds":139874,"freshness":"FRESH","line1":"1 44453U 19046A   26144.29029913 -.00000011  00000+0  00000+0 0  9993","line2":"2 44453  63.1160  53.8420 7069462 274.8017  14.7796  2.00604462 49869","mean_motion":2.00604462,"eccentricity":0.7069462,"inclination_deg":63.116,"raan_deg":53.842,"arg_perigee_deg":274.8017,"mean_anomaly_deg":14.7796,"bstar":0,"rev_number":4986,"period_min":717.83049372052,"perigee_km":1404.41693969,"apogee_km":38952.791565502,"semimajor_km":26556.741252596,"source":"CELESTRAK","updated_at":"2026-05-25T13:37:55.974202Z"}}}